Location: Peterborough
(44.3091°N, 78.3197°W)
Time: 06:25:26
(UTC-04:00)

Vanguard 3 - Pass Details

Date: 30 March 2023
Orbit: 507 x 3246 km, 33.4° (Epoch: 04 June)

Event Time Altitude Azimuth Distance (km) Brightness Sun altitude
Rises 00:20:46 0° 191° (S) 5,573 - -40.4°
Reaches altitude 10° 00:25:22 10° 177° (S) 4,999 - -40.6°
Maximum altitude 00:35:51 22° 134° (SE) 4,772 - -41.1°
Exits shadow 00:43:24 17° 106° (ESE) 5,463 11.1 -41.4°
Drops below altitude 10° 00:48:29 10° 93° (E) 6,164 11.5 -41.6°
Sets 00:55:01 0° 81° (E) 7,198 12.0 -41.8°
